Cloud_Cover
14 12 63 100 100 100 100 100 45 5 0 0 5 5 19 78 5 5 5 6 18 6 26 100 80 100 100 100 67 48 82 97 25 1 79 98 34 90 80 0 0 0 0 0 100
3 0 43 100 100 100 100 100 71 1 1 18 4 3 5 77 5 7 97 5 5 5 5 2 77 98 82 100 100 17 21 100 91 1 74 36 0 19 35 80 100 0 0 19 7
0 0 40 98 100 100 100 100 47 18 0 16 0 0 70 100 100 73 20 5 5 4 17 76 89 100 100 14 93 88 100 91 30 30 16 5 6 0 43 9 5 0 0 0 0
0 0 37 86 100 100 100 100 100 63 22 26 0 0 4 99 100 94 99 5 5 26 77 100 100 100 100 100 42 38 58 16 54 92 2 3 4 16 0 0 0 0 0 0 0
0 0 74 100 100 100 100 100 100 32 21 17 0 0 0 5 72 100 68 5 5 5 100 100 100 100 75 97 100 100 45 53 95 65 12 100 66 100 9 0 0 0 0 0 0
0 1 94 100 100 100 100 100 34 24 22 4 0 13 0 5 5 100 48 5 4 24 100 100 100 100 100 99 100 100 92 22 0 41 90 25 86 99 84 0 0 2 0 5 18
0 2 100 100 100 100 100 23 24 0 0 0 0 0 0 0 61 48 100 15 0 4 100 100 100 100 100 100 100 100 100 11 27 40 32 52 57 58 7 1 0 0 30 50 46
0 17 100 100 100 100 98 37 56 5 0 0 0 0 0 0 86 25 97 17 4 4 3 83 96 81 100 100 100 100 100 88 100 90 77 24 23 8 5 33 5 3 27 100 100
23 58 100 100 100 100 47 10 15 6 5 0 0 0 0 0 11 100 98 100 74 15 23 44 77 92 100 100 100 100 100 100 100 100 92 90 25 0 4 5 5 9 98 100 6
65 100 100 100 100 100 52 0 0 0 0 0 0 0 0 0 0 68 100 99 100 97 88 95 100 73 100 100 100 100 100 100 100 100 100 100 63 4 1 29 16 18 57 2 3
100 100 100 100 100 100 16 0 0 0 0 0 0 0 0 0 0 0 100 100 100 100 100 98 98 55 26 100 100 100 100 100 100 100 100 100 100 100 100 100 100 100 99 76 11
100 100 100 100 100 91 59 0 0 0 0 0 0 0 0 0 0 0 0 47 46 92 100 99 80 90 100 89 100 100 100 100 100 100 100 100 100 100 100 100 100 100 100 100 100
100 100 100 100 52 6 0 0 0 0 0 0 0 0 0 0 0 0 0 0 0 0 49 100 100 100 98 82 100 100 100 100 100 100 100 100 100 100 100 100 100 100 99 100 100
100 100 100 97 7 0 0 0 0 0 0 0 0 0 0 0 0 0 0 0 0 0 2 34 100 100 100 90 59 98 100 92 100 100 100 100 100 100 100 100 100 81 100 100 97
100 100 100 99 3 0 0 0 0 0 0 0 0 0 0 0 0 0 0 0 0 0 5 0 32 100 100 99 100 100 100 92 96 67 100 66 47 81 100 100 100 100 96 100 100
100 100 97 0 0 0 0 0 0 0 0 0 0 0 0 0 0 0 0 0 0 0 0 0 5 95 98 69 14 4 13 2 27 96 100 95 71 63 100 100 100 99 94 100 100
49 84 95 0 0 0 0 0 0 0 0 0 0 0 0 0 0 0 0 0 0 0 0 0 0 2 3 2 1 0 0 0 0 0 18 99 44 71 100 100 100 100 75 100 100
6 55 0 0 0 0 0 0 0 0 0 0 0 0 0 0 0 0 0 0 0 0 0 0 0 0 0 0 0 0 2 28 2 22 92 71 76 50 80 40 63 100 100 100 100
12 0 0 0 0 0 0 0 0 0 0 0 0 0 0 0 0 0 0 0 0 0 0 0 0 0 0 0 0 0 0 1 0 0 91 100 18 5 92 77 42 5 78 100 100
0 0 0 0 0 0 0 0 0 0 0 0 0 0 0 0 0 0 0 0 0 0 0 0 0 0 0 0 0 0 1 4 4 4 86 99 18 5 67 2 4 3 3 39 90
0 0 0 0 0 0 0 0 0 0 0 0 0 0 0 0 0 0 0 0 0 0 0 0 0 0 0 0 0 2 5 0 0 2 13 79 100 72 2 7 91 97 89 89 92
0 0 0 0 0 0 0 0 0 0 0 0 0 0 0 0 0 0 0 0 0 0 0 0 0 0 0 0 0 0 0 4 2 5 36 5 28 11 85 98 61 100 100 100 97
0 0 0 0 0 0 0 0 0 1 0 0 5 1 0 4 1 4 5 7 5 4 4 0 0 0 2 16 5 0 0 0 0 0 0 35 95 9 79 100 100 100 100 100 98
0 0 0 1 3 5 5 5 74 5 5 1 0 5 4 0 0 1 6 78 51 5 31 4 1 0 10 100 100 12 23 71 2 0 9 4 46 60 33 100 100 100 100 100 98
0 0 4 1 41 35 21 94 21 65 5 20 8 5 27 75 3 6 25 100 99 4 5 5 0 0 6 100 100 100 27 26 10 5 91 100 96 1 0 0 26 69 100 100 100
5 4 5 5 16 100 100 100 99 93 41 54 25 11 12 6 93 100 100 100 90 6 5 2 0 5 5 100 5 88 100 91 99 100 100 100 52 5 9 100 100 54 99 32 81
0 5 5 5 5 19 72 98 100 100 43 100 51 5 30 70 100 80 10 1 0 0 68 4 3 2 1 6 9 100 98 24 82 95 99 5 25 28 100 100 93 100 15 31 85